When you browse on this site, cookies collect data to enhance your experience and personalize the content and advertising you see.
Visit our Privacy Policy to learn more. By continuing to use the site, you agree to this use of cookies and data.
  • In Austria
  • List of Countries
  • For 7 days
  • Water Temperature
  • Weather Map
  • News
  • Weather Widgets
  • user-avatar
    Login

    Hourly Weather Tyrgowishte

    Today, 28 May, Thursday

    Time Temperature Precipitation Wind Pressure Humidity
    00:00 +9°C° 0 mm 2 mps 746 mmHg 93%
    01:00 +9°C° 0 mm 2 mps 746 mmHg 93%
    02:00 +8°C° 0 mm 2 mps 746 mmHg 94%
    03:00 +8°C° 0 mm 2 mps 746 mmHg 94%
    04:00 +8°C° 0 mm 2 mps 745 mmHg 94%
    05:00 +8°C° 0 mm 2 mps 745 mmHg 94%
    06:00 +10°C° 0 mm 2 mps 745 mmHg 89%
    07:00 +12°C° 0 mm 2 mps 745 mmHg 85%
    08:00 +13°C° 0 mm 3 mps 745 mmHg 80%
    09:00 +14°C° 0.4 mm 3 mps 745 mmHg 77%
    10:00 +16°C° 0.4 mm 3 mps 744 mmHg 73%
    11:00 +17°C° 0.4 mm 4 mps 744 mmHg 70%
    12:00 +17°C° 0.8 mm 3 mps 744 mmHg 69%
    13:00 +18°C° 0.8 mm 3 mps 743 mmHg 69%
    14:00 +18°C° 0.8 mm 3 mps 743 mmHg 68%
    15:00 +18°C° 0.6 mm 3 mps 743 mmHg 69%
    16:00 +18°C° 0.6 mm 2 mps 743 mmHg 70%
    17:00 +18°C° 0.6 mm 2 mps 742 mmHg 71%
    18:00 +16°C° 0.6 mm 2 mps 742 mmHg 76%
    19:00 +15°C° 0.6 mm 2 mps 742 mmHg 80%
    20:00 +13°C° 0.6 mm 1 mps 742 mmHg 85%
    21:00 +12°C° 0.1 mm 1 mps 742 mmHg 86%
    22:00 +12°C° 0.1 mm 1 mps 743 mmHg 87%
    23:00 +11°C° 0.1 mm 1 mps 743 mmHg 88%

    Tomorrow, 29 May, Friday

    Time Temperature Precipitation Wind Pressure Humidity
    00:00 +11°C° 0 mm 1 mps 743 mmHg 89%
    01:00 +11°C° 0 mm 1 mps 743 mmHg 90%
    02:00 +11°C° 0 mm 1 mps 742 mmHg 90%
    03:00 +11°C° 0.2 mm 1 mps 743 mmHg 91%
    04:00 +11°C° 0.2 mm 1 mps 743 mmHg 92%
    05:00 +11°C° 0.2 mm 1 mps 743 mmHg 92%
    06:00 +12°C° 0 mm 1 mps 743 mmHg 89%
    07:00 +13°C° 0 mm 2 mps 743 mmHg 86%
    08:00 +15°C° 0 mm 2 mps 743 mmHg 83%
    09:00 +16°C° 0.4 mm 3 mps 743 mmHg 79%
    10:00 +17°C° 0.4 mm 4 mps 743 mmHg 74%
    11:00 +19°C° 0.4 mm 4 mps 743 mmHg 70%
    12:00 +19°C° 0.8 mm 4 mps 743 mmHg 68%
    13:00 +20°C° 0.8 mm 4 mps 742 mmHg 65%
    14:00 +20°C° 0.8 mm 3 mps 742 mmHg 62%
    15:00 +20°C° 1.4 mm 3 mps 742 mmHg 65%
    16:00 +19°C° 1.4 mm 2 mps 742 mmHg 68%
    17:00 +19°C° 1.4 mm 2 mps 742 mmHg 70%
    18:00 +18°C° 0.6 mm 2 mps 742 mmHg 75%
    19:00 +16°C° 0.6 mm 1 mps 742 mmHg 79%
    20:00 +15°C° 0.6 mm 1 mps 742 mmHg 83%
    21:00 +14°C° 0.1 mm 1 mps 742 mmHg 86%
    22:00 +13°C° 0.1 mm 2 mps 742 mmHg 88%
    23:00 +13°C° 0.1 mm 2 mps 743 mmHg 90%

    Day after tomorrow, 30 May, Saturday

    Time Temperature Precipitation Wind Pressure Humidity
    00:00 +13°C° 0 mm 2 mps 742 mmHg 90%
    01:00 +13°C° 0 mm 2 mps 742 mmHg 90%
    02:00 +12°C° 0 mm 1 mps 742 mmHg 91%
    03:00 +12°C° 0 mm 1 mps 742 mmHg 91%
    04:00 +12°C° 0 mm 2 mps 742 mmHg 91%
    05:00 +12°C° 0 mm 2 mps 742 mmHg 92%
    06:00 +13°C° 0 mm 2 mps 742 mmHg 86%
    07:00 +15°C° 0 mm 2 mps 743 mmHg 81%
    08:00 +17°C° 0 mm 2 mps 743 mmHg 76%
    09:00 +18°C° 0.1 mm 3 mps 743 mmHg 73%
    10:00 +19°C° 0.1 mm 4 mps 743 mmHg 69%
    11:00 +20°C° 0.1 mm 5 mps 743 mmHg 66%
    12:00 +20°C° 0.3 mm 4 mps 743 mmHg 66%
    13:00 +21°C° 0.3 mm 4 mps 742 mmHg 66%
    14:00 +21°C° 0.3 mm 4 mps 742 mmHg 66%
    15:00 +21°C° 0.4 mm 4 mps 742 mmHg 67%
    16:00 +21°C° 0.4 mm 4 mps 742 mmHg 68%
    17:00 +21°C° 0.4 mm 3 mps 742 mmHg 69%
    18:00 +19°C° 0.2 mm 3 mps 741 mmHg 75%
    19:00 +17°C° 0.2 mm 2 mps 741 mmHg 80%
    20:00 +16°C° 0.2 mm 2 mps 741 mmHg 86%
    21:00 +15°C° 0.1 mm 2 mps 741 mmHg 86%
    22:00 +15°C° 0.1 mm 2 mps 742 mmHg 86%
    23:00 +14°C° 0.1 mm 2 mps 742 mmHg 86%

    31 May, Sunday

    Time Temperature Precipitation Wind Pressure Humidity
    00:00 +14°C° 0 mm 2 mps 741 mmHg 86%
    01:00 +14°C° 0 mm 1 mps 741 mmHg 86%
    02:00 +13°C° 0 mm 1 mps 741 mmHg 86%
    03:00 +13°C° 0 mm 1 mps 741 mmHg 87%
    04:00 +13°C° 0 mm 2 mps 740 mmHg 88%
    05:00 +13°C° 0 mm 2 mps 740 mmHg 89%
    06:00 +13°C° 0 mm 3 mps 740 mmHg 83%
    07:00 +15°C° 0 mm 4 mps 741 mmHg 78%
    08:00 +18°C° 0 mm 4 mps 741 mmHg 72%
    09:00 +19°C° 0 mm 5 mps 741 mmHg 68%
    10:00 +20°C° 0 mm 5 mps 741 mmHg 64%
    11:00 +21°C° 0 mm 5 mps 741 mmHg 60%
    12:00 +21°C° 0.3 mm 5 mps 741 mmHg 61%
    13:00 +22°C° 0.3 mm 5 mps 740 mmHg 62%
    14:00 +22°C° 0.3 mm 5 mps 740 mmHg 62%
    15:00 +21°C° 0.4 mm 4 mps 740 mmHg 66%
    16:00 +21°C° 0.4 mm 4 mps 740 mmHg 69%
    17:00 +20°C° 0.4 mm 3 mps 739 mmHg 72%
    18:00 +19°C° 0.4 mm 3 mps 739 mmHg 78%
    19:00 +17°C° 0.4 mm 3 mps 739 mmHg 83%
    20:00 +16°C° 0.4 mm 3 mps 740 mmHg 88%
    21:00 +15°C° 0 mm 2 mps 740 mmHg 88%
    22:00 +15°C° 0 mm 2 mps 740 mmHg 88%
    23:00 +14°C° 0 mm 2 mps 740 mmHg 88%

    1 June, Monday

    Time Temperature Precipitation Wind Pressure Humidity
    00:00 +14°C° 0 mm 2 mps 739 mmHg 88%
    01:00 +12°C° 0 mm 3 mps 739 mmHg 89%
    02:00 +11°C° 0 mm 3 mps 739 mmHg 89%
    03:00 +11°C° 0 mm 3 mps 739 mmHg 89%
    04:00 +11°C° 0 mm 3 mps 739 mmHg 88%
    05:00 +11°C° 0 mm 4 mps 739 mmHg 88%
    06:00 +12°C° 0 mm 4 mps 739 mmHg 85%
    07:00 +14°C° 0 mm 5 mps 739 mmHg 82%
    08:00 +15°C° 0 mm 6 mps 740 mmHg 79%
    09:00 +16°C° 0 mm 5 mps 740 mmHg 75%
    10:00 +17°C° 0 mm 5 mps 740 mmHg 70%
    11:00 +19°C° 0 mm 5 mps 740 mmHg 65%
    12:00 +20°C° 0 mm 5 mps 739 mmHg 62%
    13:00 +21°C° 0 mm 4 mps 739 mmHg 60%
    14:00 +21°C° 0 mm 4 mps 739 mmHg 57%
    15:00 +21°C° 0.3 mm 3 mps 739 mmHg 61%
    16:00 +21°C° 0.3 mm 3 mps 739 mmHg 65%
    17:00 +20°C° 0.3 mm 3 mps 738 mmHg 69%
    18:00 +19°C° 0.6 mm 2 mps 738 mmHg 75%
    19:00 +18°C° 0.6 mm 1 mps 738 mmHg 81%
    20:00 +15°C° 0.6 mm 1 mps 738 mmHg 87%
    21:00 +15°C° 0.1 mm 1 mps 739 mmHg 88%
    22:00 +15°C° 0.1 mm 1 mps 739 mmHg 88%
    23:00 +14°C° 0.1 mm 1 mps 739 mmHg 88%

    2 June, Tuesday

    Time Temperature Precipitation Wind Pressure Humidity
    00:00 +13°C° 0.3 mm 0 mps 739 mmHg 89%
    01:00 +13°C° 0.3 mm 0 mps 739 mmHg 89%
    02:00 +13°C° 0.3 mm 0 mps 739 mmHg 90%
    03:00 +13°C° 0.1 mm 0 mps 739 mmHg 90%
    04:00 +13°C° 0.1 mm 0 mps 739 mmHg 91%
    05:00 +13°C° 0.1 mm 0 mps 739 mmHg 91%
    06:00 +14°C° 0.1 mm 0 mps 739 mmHg 88%
    07:00 +16°C° 0.1 mm 1 mps 740 mmHg 86%
    08:00 +18°C° 0.1 mm 1 mps 740 mmHg 83%
    09:00 +19°C° 1 mm 1 mps 740 mmHg 79%
    10:00 +19°C° 1 mm 2 mps 740 mmHg 76%
    11:00 +20°C° 1 mm 2 mps 740 mmHg 72%
    12:00 +21°C° 1.1 mm 2 mps 740 mmHg 71%
    13:00 +21°C° 1.1 mm 3 mps 740 mmHg 70%
    14:00 +22°C° 1.1 mm 3 mps 739 mmHg 69%
    15:00 +21°C° 0.4 mm 3 mps 739 mmHg 71%
    16:00 +21°C° 0.5 mm 4 mps 739 mmHg 73%
    17:00 +21°C° 0.5 mm 4 mps 739 mmHg 74%
    18:00 +19°C° 0.4 mm 3 mps 739 mmHg 80%
    19:00 +18°C° 0.4 mm 3 mps 739 mmHg 85%
    20:00 +16°C° 0.4 mm 2 mps 739 mmHg 90%
    21:00 +16°C° 0 mm 2 mps 739 mmHg 91%
    22:00 +15°C° 0 mm 2 mps 739 mmHg 92%
    23:00 +14°C° 0 mm 2 mps 739 mmHg 93%
    Show more